PRAETORIAN SDA_604

Last updated on Sun Jun 21 2026 00:03:46 GMT+0000 (Coordinated Universal Time)

1 65567U 25203C 26170.96403972 .00000046 00000+0 31258-4 0 9999 2 65567 81.3052 8.5312 0005419 183.6347 176.4770 13.83047734 39060
UTC large
Height (km)
Speed (km/s)
/
Latitude / Longitude
Inclination (degrees)
Orbital Period (minutes)
Azimuth
Elevation
Range (km)
Doppler Factor

Next 0 passes for location: London (51.5072 / 0.1276)

No passes found over London.
PRAETORIAN SDA_604